Regional Weather Roundup
Issued by NWS

Home | Current Version | Previous Version | Graphics & Text | Print | Product List | Glossary On
Versions: 1 2 3 4 5 6 7 8 9 10 11 12 13 14 15 16 17 18 19 20 21 22 23 24 25 26 27 28 29 30 31 32 33 34 35 36 37 38 39 40 41 42 43 44 45 46 47 48 49 50
439
ASUS44 KJAN 251410
RWRMS

MISSISSIPPI HOURLY WEATHER ROUNDUP
NATIONAL WEATHER SERVICE JACKSON MS
800 AM CST SUN JAN 25 2015

NOTE: "FAIR: INDICATES FEW OR NO CLOUDS BELOW 12,000 FEET WITH NO
SIGNIFICANT WEATHER AND/OR OBSTRUCTIONS TO VISIBILITY.

MSZ001>002-007>008-010>013-018>021-025>028-034>036-251500-
NORTHWEST MISSISSIPPI

CITY           SKY/WX    TMP DP  RH WIND       PRES   REMARKS
CLARKSDALE     FAIR      41  37  87 S12       29.81F
CLEVELAND      FAIR      40  37  92 S13       29.83F WCI  32
GREENWOOD      SUNNY     43  36  76 S12       29.88F
GREENVILLE     CLEAR     42  36  79 S10       29.85F
GRENADA        FAIR      36  36 100 CALM      29.87F
OLIVE BRANCH   MOCLDY    39  39 100 S13       29.76F WCI  32
OXFORD         FAIR      37  32  81 S9        29.83F WCI  31
TUNICA         MOSUNNY   41  36  81 S12       29.79F
$$

MSZ003>006-009-014>017-022>024-029>033-037>039-251500-
NORTHEAST MISSISSIPPI

CITY           SKY/WX    TMP DP  RH WIND       PRES   REMARKS
COLUMBUS AFB   SUNNY     35  32  91 S5        29.90F WCI  31
CORINTH        FAIR      36  34  93 SE6       29.81F WCI  31
GOLDN TRIANGLE SUNNY     37  32  81 S7        29.90F WCI  32
STARKVILLE     FAIR      37  34  87 S6        29.90F WCI  33
TUPELO         PTSUNNY   37  33  85 S5        29.86F WCI  33
$$

MSZ040-058-251500-
CENTRAL MISSISSIPPI

CITY           SKY/WX    TMP DP  RH WIND       PRES   REMARKS
JACKSON INTL   SUNNY     39  37  92 S6        29.94F WCI  35
JACKSON HAWKNS SUNNY     39  36  89 S5        29.94F
MERIDIAN KEY   SUNNY     35  34  96 S7        29.96F WCI  29
MERIDIAN NAS   SUNNY     41  36  82 SW5       29.95S
RAYMOND        FAIR      41  37  87 MISG      29.94F
VICKSBURG      SUNNY     42  37  82 S5        29.94F
$$

MSZ059>079-251500-
SOUTH MISSISSIPPI

CITY           SKY/WX    TMP DP  RH WIND       PRES   REMARKS
BROOKHAVEN       N/A     39  39 100 S6        29.98F WCI  35
HATTIESBURG    SUNNY     42  39  89 SW6       30.01S
MCCOMB         MOSUNNY   34  33  96 S3        29.99S FOG
NATCHEZ        SUNNY     43  37  81 S6        29.97S
PINE BELT      SUNNY     39  36  87 CALM      30.00R
$$

MSZ080>082-251500-
COASTAL MISSISSIPPI

CITY           SKY/WX    TMP DP  RH WIND       PRES   REMARKS
BAY ST LOUIS   SUNNY     39  37  93 CALM      30.04F FOG
BILOXI         SUNNY     49  47  92 SW10      30.03F
PASCAGOULA     SUNNY     41  39  93 S5        30.04F FOG
GULFPORT       SUNNY     45  43  93 SW5       30.03F
$$



USA.gov is the U.S. government's official web portal to all federal, state and local government web resources and services.